Regional Weather Roundup
Issued by NWS

Home | Current Version | Previous Version | Text Only | Print | Product List | Glossary On
Versions: 1 2 3 4 5 6 7 8 9 10 11 12 13 14 15 16 17 18 19 20 21 22 23 24 25 26 27 28 29 30 31 32 33 34 35 36 37 38 39 40 41 42 43 44 45 46 47 48 49 50
000
ASUS43 KFSD 222110
RWRSD

WEATHER ROUNDUP FOR SOUTH DAKOTA
NATIONAL WEATHER SERVICE SIOUX FALLS SD
300 PM CST MON JAN 22 2018

NOTE: "FAIR" INDICATES FEW OR NO CLOUDS BELOW 12,000 FEET WITH NO
SIGNIFICANT WEATHER AND/OR OBSTRUCTIONS TO VISIBILITY.


SDZ001>005-009-010-012>017-222200-
NORTHWEST AND NORTH CENTRAL SOUTH DAKOTA

CITY           SKY/WX    TMP DP  RH WIND       PRES   REMARKS
BUFFALO          N/A     35  19  52 NW17      29.89S WCI  25
FAITH            N/A     36  22  56 N13       29.94F
MOBRIDGE       CLOUDY    25  22  88 N10       29.95R FOG     WCI  15
$$

SDZ012>016-024>037-041>051-057-063-072>074-222200-
SOUTHWEST AND SOUTH CENTRAL SOUTH DAKOTA

CITY           SKY/WX    TMP DP  RH WIND       PRES   REMARKS
RAPID CTY ARPT SUNNY     41  19  41 N23       29.94R
PIERRE         CLOUDY    24  23  96 N15       29.95R WCI  11
CUSTER         SUNNY     38   7  27 VRB6      29.89S
ELLSWORTH AFB  SUNNY     40  18  40 N22       29.93S
PHILIP         MOSUNNY   38  28  67 NW15      29.94S
PINE RIDGE     SUNNY     25  17  72 W12       29.98S WCI  14
SPEARFISH        N/A     37  16  41 NW16G24   29.96R
WINNER         MIX PCPN  26  23  88 N17       29.91S FOG     WCI  13
$$

SDZ004>011-016>023-039-040-222200-
NORTHEAST SOUTH DAKOTA

CITY           SKY/WX    TMP DP  RH WIND       PRES   REMARKS
ABERDEEN       CLOUDY    24  21  88 N21       29.96R WCI   9
WATERTOWN      CLOUDY    24  24 100 N22G31    29.83S WCI   9
BROOKINGS      CLOUDY    26  23  88 N22G30    29.79S WCI  12
SISSETON         N/A     27  24  89 N23       29.91R WCI  12
$$

SDZ017-020-022-023-036>040-048>070-222200-
SOUTHEAST SOUTH DAKOTA

CITY           SKY/WX    TMP DP  RH WIND       PRES   REMARKS
SIOUX FALLS    LGT SNOW  27  25  92 N28G35    29.74R BLWGSNOWWCI  11
HURON          CLOUDY    24  22  91 N22G29    29.90S WCI   9
CHAMBERLAIN    CLOUDY    28  26  93 NW17      29.91R WCI  15
MITCHELL       CLOUDY    25  23  92 N26G37    29.87S WCI   9
YANKTON        LGT SNOW  27  25  93 MISG      29.76R VSB 1
$$

ABBREVIATIONS USED IN REMARKS
   TC - TEMPERATURE IN CELSIUS
  WCI - WIND CHILL INDEX
   HX - HEAT INDEX
  VSB - VISIBILITY





USA.gov is the U.S. government's official web portal to all federal, state and local government web resources and services.